User: anonymous   Login
Location: Hokitika
(42.7170°S, 170.9670°E)
Time: 01:21:40
(UTC+13:00)
Language:

COSMOS 2428 - Orbit

View from above orbital plane
View from above orbital plane
View from above satellite
View from above satellite

Ground track
Ground track

The orbit data is extracted from the following two-line orbital elements,

1 31792U 07029A   19288.88093508 -.00000236  00000-0 -10174-3 0  9998
2 31792  70.9341  68.4350 0007425  61.7960 298.3910 14.12429630634198
Epoch (UTC): 15 October 2019 21:08:32
Eccentricity: 0.0007425
inclination: 70.9341°
perigee height: 846 km
apogee height: 856 km
right ascension of ascending node: 68.4350°
argument of perigee: 61.7960°
revolutions per day: 14.12429630
mean anomaly at epoch: 298.3910°
orbit number at epoch: 63419

The dashed part of the orbit path shows where the satellite is in the earth's shadow,  

DLR